Weather History for KEWK - November, 2011

Change the Weather History Date:

Wednesday, November 2, 2011

  Actual Average Record
Temperature  
Mean Temperature 46 °F -  
Max Temperature 57 °F 56 °F 78 °F (2012)
Min Temperature 35 °F 38 °F 24 °F (2006)
Degree Days  
Heating Degree Days 19    
Moisture  
Dew Point 40 °F    
Average Humidity 74    
Maximum Humidity 87    
Minimum Humidity 59    
Precipitation  
Precipitation 0.00 in - - ()
Sea Level Pressure  
Sea Level Pressure 29.98 in    
Wind  
Wind Speed 14 mph (NE)    
Max Wind Speed 31 mph    
Max Gust Speed 43 mph    
Visibility 7 miles    
Events      
Averages and records for this station are not official NWS values.
T = Trace of Precipitation, MM = Missing Value Source: NWS Daily Summary

Daily Weather History Graph

Daily Weather History Graph

Search for Another Location

Airport or City:

Trip Planner

Search our weather history database for the weather conditions in past years. The results will help you decide how hot, cold, wet, or windy it might be!

Date:

Astronomy

Nov. 02, 2011 Rise Set
Actual Time 7:55 AM CDT 6:29 PM CDT
Civil Twilight 7:28 AM CDT 6:56 PM CDT
Nautical Twilight 6:57 AM CDT 7:27 PM CDT
Astronomical Twilight 6:26 AM CDT 7:58 PM CDT
Moon 2:16 PM CDT (11/2) 12:14 AM CDT (11/2)
Length of Visible Light 11h 28m
Length of Day
10h 33m
Waxing Crescent, 50% of the Moon is Illuminated
Nov 2
Waxing Crescent
Nov 10
Full
Nov 18
Last Quarter
Nov 25
New
Dec 2
First Quarter

Hourly Weather History & Observations

Time (CDT) Temp. Windchill Dew Point Humidity Pressure Visibility Wind Dir Wind Speed Gust Speed Precip Events Conditions
12:15 AM 57.2 °F - 46.4 °F 67% 29.92 in 10.0 mi SSE 9.2 mph - N/A   Clear
12:35 AM 57.2 °F - 46.4 °F 67% 29.92 in 10.0 mi SSE 9.2 mph - N/A   Clear
12:55 AM 57.2 °F - 46.4 °F 67% 29.91 in 10.0 mi SSE 11.5 mph - N/A   Clear
1:15 AM 57.2 °F - 46.4 °F 67% 29.91 in 10.0 mi SSE 8.1 mph - N/A   Clear
1:35 AM 57.2 °F - 46.4 °F 67% 29.90 in 10.0 mi SSE 10.4 mph - N/A   Clear
1:55 AM 57.2 °F - 46.4 °F 67% 29.91 in 10.0 mi SSE 10.4 mph - N/A   Clear
2:15 AM 57.2 °F - 46.4 °F 67% 29.90 in 10.0 mi SE 9.2 mph - N/A   Clear
2:35 AM 57.2 °F - 46.4 °F 67% 29.90 in 10.0 mi SSE 9.2 mph - N/A   Clear
2:55 AM 57.2 °F - 44.6 °F 63% 29.89 in 10.0 mi SE 11.5 mph - N/A   Clear
3:15 AM 57.2 °F - 44.6 °F 63% 29.89 in 10.0 mi SSE 9.2 mph - N/A   Clear
3:35 AM 57.2 °F - 44.6 °F 63% 29.89 in 10.0 mi SSE 12.7 mph 18.4 mph N/A   Clear
3:55 AM 57.2 °F - 44.6 °F 63% 29.90 in 10.0 mi Calm Calm - N/A   Clear
4:55 AM 57.2 °F - 42.8 °F 59% 29.90 in 10.0 mi South 6.9 mph - N/A   Clear
5:55 AM 57.2 °F - 42.8 °F 59% 29.91 in 10.0 mi SSE 4.6 mph - N/A   Clear
6:15 AM 55.4 °F - 42.8 °F 63% 29.91 in 10.0 mi East 3.5 mph - N/A   Clear
6:35 AM 53.6 °F - 42.8 °F 67% 29.90 in 10.0 mi East 4.6 mph - N/A   Clear
6:55 AM 53.6 °F - 42.8 °F 67% 29.90 in 10.0 mi ENE 5.8 mph - N/A   Clear
7:15 AM 53.6 °F - 42.8 °F 67% 29.91 in 10.0 mi NNE 5.8 mph - N/A   Clear
7:35 AM 53.6 °F - 44.6 °F 72% 29.92 in 10.0 mi NNE 5.8 mph - N/A   Mostly Cloudy
7:55 AM 53.6 °F - 44.6 °F 72% 29.92 in 10.0 mi North 8.1 mph - N/A   Overcast
8:15 AM 53.6 °F - 44.6 °F 72% 29.92 in 10.0 mi NNE 11.5 mph - N/A   Overcast
8:55 AM 50.0 °F - 37.4 °F 62% 29.94 in 10.0 mi North 19.6 mph 23.0 mph N/A   Overcast
9:15 AM 50.0 °F - 37.4 °F 62% 29.95 in 10.0 mi NNE 18.4 mph 24.2 mph N/A   Overcast
9:35 AM 48.2 °F - 37.4 °F 66% 29.96 in 10.0 mi NNE 18.4 mph 24.2 mph N/A   Overcast
9:55 AM 48.2 °F - 37.4 °F 66% 29.96 in 10.0 mi NNE 17.3 mph 24.2 mph N/A   Overcast
10:15 AM 48.2 °F - 37.4 °F 66% 29.96 in 10.0 mi NNE 20.7 mph 28.8 mph N/A   Overcast
10:35 AM 46.4 °F 38.5 °F 37.4 °F 71% 29.96 in 9.0 mi NNE 21.9 mph 28.8 mph N/A   Overcast
10:55 AM 44.6 °F 37.2 °F 39.2 °F 81% 29.97 in 6.0 mi NNE 17.3 mph 27.6 mph N/A   Overcast
11:15 AM 44.6 °F 36.1 °F 39.2 °F 81% 29.98 in 3.0 mi North 21.9 mph 27.6 mph N/A   Overcast
11:35 AM 44.6 °F 35.7 °F 39.2 °F 81% 29.99 in 1.8 mi NNE 24.2 mph 28.8 mph N/A   Overcast
11:55 AM 44.6 °F 36.6 °F 39.2 °F 81% 29.99 in 2.5 mi NNE 19.6 mph 28.8 mph N/A   Overcast
12:15 PM 44.6 °F 35.9 °F 39.2 °F 81% 30.00 in 3.0 mi North 23.0 mph 31.1 mph N/A   Overcast
12:35 PM 42.8 °F 33.5 °F 39.2 °F 87% 30.00 in 3.0 mi NNE 23.0 mph 31.1 mph N/A   Overcast
12:55 PM 42.8 °F 32.9 °F 39.2 °F 87% 30.00 in 5.0 mi North 26.5 mph 33.4 mph N/A   Overcast
1:15 PM 42.8 °F 33.3 °F 37.4 °F 81% 30.01 in 5.0 mi North 24.2 mph 34.5 mph N/A   Overcast
1:35 PM 41.0 °F 30.5 °F 37.4 °F 87% 30.01 in 5.0 mi North 26.5 mph 34.5 mph N/A   Overcast
1:55 PM 41.0 °F 29.7 °F 37.4 °F 87% 30.01 in 5.0 mi NNE 31.1 mph 38.0 mph N/A   Overcast
2:15 PM 41.0 °F 30.5 °F 35.6 °F 81% 30.02 in 7.0 mi NNE 26.5 mph 36.8 mph N/A   Overcast
2:35 PM 41.0 °F 30.2 °F 35.6 °F 81% 30.02 in 5.0 mi NNE 27.6 mph 35.7 mph N/A   Overcast
2:55 PM 41.0 °F 30.0 °F 37.4 °F 87% 30.02 in 4.0 mi North 28.8 mph 38.0 mph N/A   Overcast
3:15 PM 39.2 °F 28.0 °F 35.6 °F 87% 30.03 in 3.0 mi North 26.5 mph 39.1 mph N/A   Overcast
3:35 PM 39.2 °F 27.4 °F 33.8 °F 81% 30.03 in 3.0 mi North 29.9 mph 39.1 mph N/A   Overcast
3:55 PM 37.4 °F 25.6 °F 33.8 °F 87% 30.05 in 4.0 mi North 26.5 mph 39.1 mph N/A   Overcast
4:15 PM 37.4 °F 24.8 °F 33.8 °F 87% 30.05 in 3.0 mi North 31.1 mph 36.8 mph N/A   Overcast
4:35 PM 37.4 °F 25.2 °F 33.8 °F 87% 30.07 in 4.0 mi North 28.8 mph 40.3 mph N/A   Overcast
4:55 PM 37.4 °F 25.4 °F 33.8 °F 87% 30.08 in 3.0 mi North 27.6 mph 39.1 mph N/A   Overcast
11:15 PM 35.6 °F 23.0 °F 32.0 °F 87% 30.26 in 7.0 mi North 27.6 mph 42.6 mph N/A   Overcast
11:35 PM 35.6 °F 23.0 °F 30.2 °F 81% 30.26 in 4.0 mi North 27.6 mph 34.5 mph N/A   Overcast
11:55 PM 35.6 °F 24.0 °F 30.2 °F 81% 30.27 in 1.2 mi NNW 23.0 mph 34.5 mph N/A   Overcast